Back to catalog

FENGYUN 1C DEB

AliveSSO
NORAD 33748·DEBRIS·🇨🇳 China

Launched May 10, 1999 from Taiyuan Satellite Launch Center

Loading…

Next Passes (next 24 hours)

TLE

FreshSource: Space-Track

Epoch: Sep 14, 2026, 02:40 UTC

1 33748U 99025DJM 26257.11132375  .00001583  00000-0  58448-3 0  9994
2 33748  98.5601 310.3803 0035761 146.8906 213.4527 14.33490391953378

Track FENGYUN 1C DEB in real time with AllMySat

Download on the App Store